[[{"header":{"parameterUnit":"m.s-1","parameterCategory":1,"la1":30.2992,"la2":30.254,"lo1":-89.0895,"lo2":-89.0443,"dy":0.0025,"dx":0.0025,"nx":19,"ny":19,"refTime":"2026-03-09T21:00:00:Z","depth":0,"parameterNumber":2,"parameterNumberName":"U-component_of_WINDS"},"data":[0,0,0,-2.5528,-2.5528,-2.5518,-2.5518,-2.5514,-2.5514,0,0,0,0,0,0,0,0,0,0,0,-2.5538,-2.5538,-2.5528,-2.5528,-2.5518,-2.5518,-2.5514,-2.5514,0,0,0,0,0,0,0,0,0,0,0,-2.5538,-2.5538,-2.5538,-2.5528,-2.5518,-2.5518,-2.5514,-2.5518,0,0,0,0,0,0,0,0,0,0,-2.5527,-2.5542,-2.5538,-2.5538,-2.5528,-2.5518,-2.5518,-2.5518,-2.5518,-2.5523,0,-2.5529,0,-2.5522,-2.5514,-2.5514,0,0,0,-2.5523,-2.5542,-2.5534,-2.5538,-2.5528,-2.5518,-2.5521,-2.5518,-2.5517,-2.5522,-2.5529,-2.5529,-2.5521,-2.5514,-2.5514,-2.5559,-2.556,0,0,-2.5524,-2.5539,-2.5534,-2.5534,-2.5537,-2.5521,-2.5521,-2.5517,-2.5526,-2.5529,-2.5528,-2.5521,-2.5514,-2.5514,-2.5559,-2.5559,0,0,0,-2.5529,-2.554,-2.5531,-2.5534,-2.5532,-2.5521,-2.552,-2.5526,-2.5522,-2.5528,-2.5521,-2.5514,-2.5514,-2.5558,-2.5559,-2.5594,0,0,0,-2.5529,-2.5543,-2.5532,-2.5541,-2.5532,-2.5529,-2.5529,-2.5522,-2.5521,-2.5521,-2.5514,-2.5514,-2.5558,-2.5559,-2.5592,-2.5608,0,0,0,-2.5536,-2.5544,-2.5544,-2.5542,-2.5538,-2.5528,-2.5524,-2.5521,-2.5517,-2.5514,-2.5514,-2.5557,-2.5559,-2.559,-2.5605,-2.5622,0,0,0,-2.5548,-2.5577,-2.5545,-2.5574,-2.5538,-2.5551,-2.5524,-2.5533,-2.5535,-2.5514,-2.5558,-2.5559,-2.559,-2.5603,-2.5621,-2.5639,-2.5648,0,0,-2.5593,-2.5583,-2.5599,-2.557,-2.5592,-2.5552,-2.5579,-2.5566,-2.5552,-2.5557,-2.5558,-2.5593,-2.5605,-2.5622,-2.57,-2.5708,0,0,0,-2.5618,-2.5629,-2.5632,-2.5634,-2.5625,-2.5618,-2.56,-2.5595,-2.5599,-2.5558,-2.5605,-2.5611,-2.5621,-2.5629,-2.5635,-2.5641,-2.5564,-2.5564,-2.5564,-2.5701,-2.5681,-2.5705,-2.5684,-2.5687,-2.5668,-2.5667,-2.5657,-2.5637,-2.5648,-2.5649,-2.5699,-2.5709,-2.5713,-2.572,-2.5659,-2.5659,-2.5659,-2.5659,-2.5762,-2.5774,-2.5746,-2.5759,-2.5738,-2.5749,-2.5731,-2.5716,-2.5722,-2.5697,-2.5704,-2.5677,-2.5723,-2.5727,-2.5662,-2.5661,-2.5661,-2.5661,-2.5661,-2.5813,-2.5815,-2.5809,-2.5809,-2.5812,-2.579,-2.5797,-2.5778,-2.576,-2.5767,-2.5764,-2.5764,-2.5759,-2.5768,-2.5768,-2.5768,-2.5768,-2.5768,-2.5769,-2.5866,-2.5858,-2.5866,-2.5859,-2.5858,-2.5853,-2.5834,-2.5831,-2.5823,-2.5809,-2.5809,-2.5786,-2.5732,-2.5717,-2.5771,-2.5771,-2.577,-2.577,-2.577,-2.5931,-2.5913,-2.5926,-2.5925,-2.5914,-2.5916,-2.5893,-2.5889,-2.5885,-2.5888,-2.5864,-2.5828,-2.5816,-2.5811,-2.5798,-2.587,-2.587,-2.587,-2.587,-2.5972,-2.5965,-2.5972,-2.5971,-2.5967,-2.5947,-2.596,-2.5945,-2.5926,-2.5922,-2.5909,-2.5892,-2.5888,-2.5878,-2.5871,-2.5859,-2.5945,-2.5945,-2.5945,-2.601,-2.6001,-2.6016,-2.5998,-2.5988,-2.598,-2.5991,-2.5989,-2.5965,-2.5947,-2.5917,-2.5914,-2.5886,-2.5878,-2.5858,-2.5848,-2.5825,0,0]},{"header":{"parameterUnit":"m.s-1","parameterCategory":1,"la1":30.2992,"la2":30.254,"lo1":-89.0895,"lo2":-89.0443,"dy":0.0025,"dx":0.0025,"nx":19,"ny":19,"refTime":"2026-03-09T21:00:00:Z","depth":0,"parameterNumber":3,"parameterNumberName":"V-component_of_WINDS"},"data":[0,0,0,3.2174,3.2176,3.2284,3.2285,3.2408,3.2409,0,0,0,0,0,0,0,0,0,0,0,3.2128,3.2128,3.2174,3.2176,3.2284,3.2285,3.2408,3.2409,0,0,0,0,0,0,0,0,0,0,0,3.2128,3.2128,3.2129,3.2176,3.2284,3.2285,3.2408,3.2332,0,0,0,0,0,0,0,0,0,0,3.223,3.2173,3.2128,3.2129,3.2177,3.2284,3.2285,3.2329,3.2337,3.2351,0,3.2357,0,3.2384,3.2416,3.2416,0,0,0,3.2186,3.2166,3.2208,3.2129,3.2178,3.2284,3.2238,3.2333,3.2342,3.2361,3.2359,3.2364,3.2387,3.2416,3.2417,3.2458,3.2458,0,0,3.218,3.2141,3.2201,3.2213,3.2191,3.2235,3.2242,3.2339,3.2335,3.2359,3.2367,3.2389,3.2417,3.2418,3.2459,3.2458,0,0,0,3.2156,3.2136,3.2176,3.2207,3.2228,3.2238,3.2246,3.233,3.2346,3.2368,3.239,3.2418,3.2419,3.2459,3.2458,3.2405,0,0,0,3.2153,3.2122,3.2172,3.2149,3.2226,3.228,3.2234,3.234,3.2352,3.2389,3.2418,3.242,3.2459,3.2459,3.2407,3.2386,0,0,0,3.2126,3.2119,3.213,3.2147,3.2192,3.2279,3.2301,3.2343,3.2365,3.2416,3.242,3.246,3.2459,3.2409,3.239,3.2387,0,0,0,3.2085,3.2079,3.2128,3.2131,3.2191,3.2244,3.2301,3.2343,3.2381,3.2418,3.2459,3.2458,3.241,3.2392,3.2389,3.2378,3.2369,0,0,3.2056,3.2074,3.208,3.2127,3.2161,3.2231,3.226,3.2332,3.2374,3.2429,3.2431,3.2406,3.239,3.2388,3.2334,3.2327,0,0,0,3.2057,3.206,3.2078,3.2112,3.2167,3.2215,3.2287,3.2316,3.2364,3.2393,3.2406,3.2397,3.2398,3.2394,3.2388,3.2393,3.2455,3.2455,3.2455,3.1957,3.2012,3.2026,3.2095,3.2128,3.2205,3.2238,3.229,3.2334,3.2337,3.2353,3.2314,3.2308,3.2304,3.2308,3.2352,3.2351,3.2351,3.2351,3.1921,3.1935,3.1998,3.2033,3.2093,3.2125,3.2202,3.2233,3.2274,3.2305,3.2308,3.2337,3.2294,3.2301,3.2348,3.2348,3.2349,3.2349,3.2349,3.1862,3.1878,3.1913,3.1971,3.2011,3.2083,3.212,3.2173,3.2224,3.2227,3.2252,3.2253,3.2262,3.2235,3.2235,3.2235,3.2235,3.2235,3.2235,3.1787,3.1828,3.1851,3.1913,3.1944,3.1993,3.2074,3.2108,3.216,3.2196,3.2197,3.2243,3.2279,3.2287,3.2233,3.2233,3.2233,3.2234,3.2234,3.1729,3.1752,3.1787,3.1819,3.1899,3.1937,3.2006,3.2071,3.2108,3.2125,3.2173,3.2191,3.2214,3.2219,3.2226,3.2159,3.2159,3.2159,3.2159,3.168,3.1698,3.1748,3.1796,3.185,3.1917,3.1961,3.2027,3.2099,3.2126,3.2144,3.2159,3.2162,3.2184,3.219,3.2197,3.2125,3.2125,3.2125,3.1649,3.1675,3.1699,3.1768,3.1837,3.1895,3.194,3.1996,3.2083,3.2124,3.215,3.2151,3.2175,3.218,3.2219,3.2227,3.2243,0,0]}]]